Regional Weather Roundup
Issued by NWS

Home | Current Version | Previous Version | Graphics & Text | Print | Product List | Glossary On
Versions: 1 2 3 4 5 6 7 8 9 10 11 12 13 14 15 16 17 18 19 20 21 22 23 24 25 26 27 28 29 30 31 32 33 34 35 36 37 38 39 40 41 42 43 44 45 46 47 48 49 50
000
ASUS43 KOAX 200110
RWRNE

WEATHER ROUNDUP FOR NEBRASKA
NATIONAL WEATHER SERVICE OMAHA NE
800 PM CDT SUN OCT 19 2014

NOTES: SATELLITE DATA IS BEING USED TO AUGMENT CLOUD COVER ABOVE
       12000 FEET.
       "FAIR" INDICATES FEW OR NO CLOUDS BELOW 12,000 FEET WITH NO
       SIGNIFICANT WEATHER AND/OR OBSTRUCTIONS TO VISIBILITY.

  * THESE STATIONS DO NOT REPORT WEATHER SUCH AS RAIN...SNOW OR FOG.

NEZ001>004-019>022-054>056-200200-
NEBRASKA PANHANDLE

CITY           SKY/WX    TMP DP  RH WIND       PRES   REMARKS
SCOTTSBLUFF    CLEAR     58  39  49 E3        30.07R
ALLIANCE       CLEAR     54  37  52 NE9       30.07R
CHADRON        CLEAR     55  42  61 SE3       30.06R
KIMBALL        CLEAR     53  36  53 E7        30.10S
SIDNEY         CLEAR     54  36  50 E3        30.10R
$$

NEZ057>060-069>072-079>082-200200-
SOUTHWEST NEBRASKA

CITY           SKY/WX    TMP DP  RH WIND       PRES   REMARKS
NORTH PLATTE   CLEAR     56  38  50 CALM      30.02R
IMPERIAL       CLEAR     60  38  43 E5        30.04R
LEXINGTON      CLEAR     59  48  66 CALM      30.01R
MCCOOK         CLEAR     61  46  57 E3        30.02R
OGALLALA       CLEAR     60  37  42 CALM      30.04R
$$

NEZ005>010-023>029-035>040-094-200200-
NORTH CENTRAL NEBRASKA

CITY           SKY/WX    TMP DP  RH WIND       PRES   REMARKS
VALENTINE      CLEAR     59  37  44 NW6       30.02R
AINSWORTH      CLEAR     60  38  43 NW3       30.02R
BROKEN BOW     CLEAR     52  40  63 NW3       30.00R
O`NEILL        CLEAR     62  43  49 N3        29.98S
ORD            CLEAR     50  41  71 CALM      29.98R
THEDFORD       CLEAR     62  38  41 CALM      30.04R
$$

NEZ041-046>049-061>064-073>077-083>087-200200-
SOUTH CENTRAL NEBRASKA

CITY           SKY/WX    TMP DP  RH WIND       PRES   REMARKS
GRAND ISLAND   CLEAR     60  49  66 SW3       29.99R
AURORA         CLEAR     58  45  62 SW3       29.98S
HASTINGS       CLEAR     59  45  59 CALM      29.99R
HEBRON         CLEAR     61  47  60 SW5       29.99S
HOLDREGE       CLEAR     57  46  68 CALM      30.00S
KEARNEY *      CLEAR     61  46  59 CALM      30.01R
YORK           CLEAR     59  46  63 SW6       29.98S
$$

NEZ011>018-030>034-042>045-200200-
NORTHEAST NEBRASKA

CITY           SKY/WX    TMP DP  RH WIND       PRES   REMARKS
NORFOLK        CLEAR     55  46  71 SW7       29.94R
ALBION         CLEAR     56  42  60 CALM      29.97R
BLAIR          CLEAR     63  47  57 SW6       29.94R
COLUMBUS *     CLEAR     54  45  71 CALM      29.97R
FREMONT        CLEAR     61  49  64 CALM      29.95R
TEKAMAH        CLEAR     57  46  66 SW5       29.93R
WAYNE          CLEAR     52  43  72 CALM      29.94R
$$

NEZ050>053-065>068-078-088>093-200200-
SOUTHEAST NEBRASKA

CITY           SKY/WX    TMP DP  RH WIND       PRES   REMARKS
LINCOLN        CLEAR     59  48  67 SW5       29.97R
OMAHA EPPLEY   CLEAR     59  47  64 S7        29.94R
BEATRICE       CLEAR     57  48  71 S3        29.99R
FALLS CITY     CLEAR     60  48  64 S6        29.98R
NEBRASKA CITY  CLEAR     61  43  53 SW8       29.97S
PLATTSMOUTH    CLEAR     61  46  56 S7        29.96S
$$

NEZ044-045-051>053-067-200200-
OMAHA AREA

CITY           SKY/WX    TMP DP  RH WIND       PRES   REMARKS
OMAHA EPPLEY   CLEAR     59  47  64 S7        29.94R
BLAIR          CLEAR     63  47  57 SW6       29.94R
FREMONT        CLEAR     61  49  64 CALM      29.95R
MILLARD        CLEAR     63  49  60 CALM      29.94R
OFFUTT AFB     CLEAR     55  52  91 S3        29.94S
PLATTSMOUTH    CLEAR     61  46  56 S7        29.96S
WAHOO          FAIR      59  47  63 CALM      29.95R
$$



USA.gov is the U.S. government's official web portal to all federal, state and local government web resources and services.